Location: Marysville Observatory
(48.1092°N, 122.1645°W)
Time: 13:06:24
(UTC-07:00)

Daily predictions for brighter satellites

Satellite Brightness Start Highest point End
(mag) Time Altitude Azimuth Time Altitude Azimuth Time Altitude Azimuth
Okean 2 4.4 21:32:58 10° SSW 21:37:03 51° WNW 21:41:09 10° N
Cosmos 1634 Rocket 4.4 21:32:27 10° N 21:38:25 48° ENE 21:44:22 10° SSE
Cosmos 2034 Rocket 4.4 21:32:50 10° NNW 21:39:12 72° W 21:45:29 10° S
CZ-2C R/B 3.1 21:38:40 10° SW 21:40:23 19° W 21:42:09 10° NW
ATLAS 3B R/B 3.6 21:34:23 10° S 21:40:58 32° ESE 21:47:26 10° NE
Meteor 2-12 Rocket 4.5 21:37:06 10° N 21:43:13 74° ENE 21:49:16 10° SSE
ERS-1 Rocket 4.0 21:40:53 10° S 21:45:41 45° W 21:50:31 10° NNW
Lacrosse 4 Rocket 2.8 21:43:57 10° SSE 21:46:46 18° ESE 21:49:38 10° ENE
UNK 4.4 21:47:20 10° NNE 21:52:40 57° ESE 21:58:15 10° S
CZ-4 SHROUD 3.7 21:50:32 10° S 21:53:39 59° W 21:56:47 10° NNW
Envisat 3.3 21:50:33 10° S 21:55:36 67° WSW 22:00:41 10° NNW
USA 234 3.3 21:51:29 10° SE 21:58:04 85° SW 22:04:42 10° NW
SPOT 5 2.9 21:54:04 10° S 21:58:26 68° WSW 22:02:45 10° NNW
Cosmos 407 Rocket 4.3 21:54:28 10° SSE 21:59:03 31° E 22:03:37 10° NE
ARGOS 3.4 21:56:04 10° SSE 22:01:23 59° ENE 22:06:43 10° N
Cosmos 2369 Rocket 2.2 21:59:24 10° NNW 22:05:08 90° NNE 22:10:29 12° SSE
Lacrosse 5 3.8 22:05:02 10° WNW 22:09:32 30° N 22:14:02 10° NE
Terra 2.9 22:06:00 12° SE 22:09:53 32° ENE 22:14:06 10° N
MetOp-B 4.4 22:09:24 10° S 22:14:44 69° WSW 22:20:06 10° NNW
SL-16 R/B 4.3 22:12:54 10° WSW 22:17:53 31° NW 22:22:54 10° NNE
NOAA 11 4.2 22:16:57 12° SSE 22:21:56 78° ENE 22:27:23 10° NNW
CZ-4C R/B 3.6 22:19:34 15° SSE 22:22:56 62° ENE 22:26:54 10° N
USA 81 4.2 22:17:57 10° N 22:23:16 80° W 22:28:33 10° S
Cosmos 1758 Rocket 3.8 22:21:04 12° S 22:24:57 52° E 22:29:12 10° NNE
CARTOSAT-1 4.1 22:25:28 16° SE 22:28:34 45° ENE 22:32:43 10° N
Cosmos 1515 4.3 22:25:31 10° SSW 22:29:19 57° WNW 22:33:09 10° N
YAOGAN 6 3.3 22:26:09 11° S 22:29:42 53° W 22:33:24 10° NNW
DELTA 2 DEB (DPAF) 4.2 22:27:30 16° SSE 22:31:07 78° ENE 22:35:38 10° NNW
Atlas Centaur 2 4.1 22:25:43 10° SW 22:31:14 21° S 22:34:58 16° SSE
BREEZE M DEB (TANK) 3.2 22:31:59 10° WSW 22:33:19 15° SSW 22:33:25 15° SSW
Cosmos 2263 4.3 22:28:15 10° NNW 22:33:52 76° WSW 22:38:22 16° SSE
Cosmos 1953 3.0 22:32:50 10° N 22:36:38 40° ENE 22:38:56 20° SE
Lacrosse 5 rocket 3.6 22:36:11 10° WNW 22:39:37 26° N 22:43:14 10° NE
Cosmos 1825 Rocket 4.0 22:37:32 10° SSW 22:41:57 64° WNW 22:46:22 10° N
COSMOS 2406 4.2 22:39:42 18° SE 22:42:37 27° ESE 22:47:23 10° NE
Geosat 4.3 22:40:01 10° NE 22:44:53 47° ESE 22:49:08 13° S
SeaSat 1 3.9 22:41:22 10° S 22:45:39 29° WSW 22:49:58 10° NW
SAR-Lupe-2 3.5 22:48:41 24° SSE 22:50:42 80° ENE 22:54:19 10° NNW
H-2A R/B 2.0 22:47:47 20° SSE 22:51:17 78° ENE 22:56:24 10° NNW
Cosmos 1842 Rocket 4.3 22:47:44 10° N 22:51:52 39° ENE 22:54:12 22° SE
BREEZE-M DEB (TANK) 1.4 22:49:24 10° WSW 22:51:56 62° SSE 22:53:04 22° E
Cosmos 1570 Rocket 4.3 22:47:39 10° NNW 22:52:58 59° ENE 22:56:29 21° SE
CZ-4B R/B 4.2 22:48:41 10° N 22:53:38 56° WNW 22:58:41 10° SW
Cosmos 1190 Rocket 4.2 22:48:44 10° SSW 22:54:02 77° WNW 22:59:25 10° NNE
Cosmos 1346 Rocket 3.3 22:52:51 10° SSW 22:56:42 58° WNW 23:00:37 10° N
SL-8 R/B 3.6 22:58:23 10° W 23:03:14 78° SSW 23:06:53 18° ESE
SL-23 DEB 4.4 22:59:05 10° SW 23:04:10 39° SSE 23:07:32 10° ENE
COSMOS 2455 3.8 22:58:32 10° WSW 23:04:22 50° NW 23:10:15 10° NNE
Cosmos 1943 Rocket 2.2 23:00:07 10° NNW 23:05:41 76° WSW 23:09:12 23° SSE
ISS -3.3 23:03:22 10° WSW 23:06:38 79° NNW 23:09:55 10° ENE
Cosmos 1842 3.2 23:05:12 22° S 23:07:39 88° E 23:11:36 10° N
Cosmos 1943 3.8 23:03:23 10° SW 23:08:59 60° WNW 23:14:39 10° NNE
Spot 2 4.4 23:04:23 10° NNE 23:09:09 67° ESE 23:12:25 21° S
Cosmos 676 Rocket 4.0 23:05:33 10° SSW 23:10:54 89° WNW 23:16:17 10° NNE
Cosmos 1140 Rocket 3.8 23:08:25 23° S 23:11:26 49° ESE 23:16:30 10° NNE
IGS 5A 3.5 23:11:16 26° S 23:13:32 75° WSW 23:17:43 10° NNW
DMSP B5D2-2 4.0 23:11:54 10° NNE 23:17:13 75° ESE 23:20:47 21° S
Cosmos 2084 3.5 23:14:05 10° NW 23:18:09 61° SW 23:19:59 31° SSE
Cosmos 1656 Rocket 3.8 23:12:45 10° NNW 23:18:29 72° ENE 23:21:49 25° SE
Nadezhda 4 Rocket 4.0 23:16:48 22° S 23:21:04 70° E 23:27:22 10° NNE
Cosmos 1758 3.6 23:19:08 10° NNW 23:23:14 65° W 23:25:16 28° S
Lacrosse 4 Rocket 2.2 23:21:10 10° SW 23:25:07 51° NW 23:29:10 10° NNE
H-2A R/B 4.4 23:23:43 10° ENE 23:25:34 13° E 23:25:46 13° E
COSMOS 2487 3.7 23:26:25 27° ESE 23:26:30 27° ESE 23:29:36 10° NE
Cosmos 1733 4.1 23:23:13 10° N 23:26:51 37° ENE 23:28:06 29° ESE
SL-27 R/B 2.3 23:27:57 32° SSW 23:29:22 82° WNW 23:32:44 10° NNE
ATLAS 3B R/B 3.2 23:23:35 10° SW 23:31:17 74° NW 23:38:45 10° NE
Cosmos 2221 3.5 23:29:20 10° N 23:33:21 36° ENE 23:34:57 26° ESE
Cosmos-2242 4.1 23:32:04 10° NNW 23:36:12 40° W 23:38:43 20° SSW
Spot 4 4.3 23:35:22 25° SSW 23:37:57 52° W 23:42:39 10° NNW
Cosmos 614 Rocket 4.2 23:35:47 30° SSE 23:38:03 53° ESE 23:43:08 10° NNE
NOSS 3-2 (A) 4.4 23:37:25 26° SE 23:39:06 29° ESE 23:44:40 10° NE
USA 234 4.4 23:38:31 20° SSW 23:41:40 28° SW 23:47:13 10° WNW
CZ-4C R/B 3.2 23:43:54 25° SE 23:44:45 26° ESE 23:49:34 10° ENE
Meteor 2-5 Rocket 4.0 23:42:23 29° SSE 23:45:11 56° E 23:50:49 10° NNE
Cosmos 1818 4.2 23:40:03 10° NNW 23:45:24 50° NE 23:49:07 19° ESE
Terra 3.0 23:44:53 20° SSW 23:47:34 35° W 23:51:57 10° NNW
Cosmos 2369 Rocket 4.4 23:45:10 10° WNW 23:48:19 15° W 23:51:27 10° SW
CZ-4B R/B 3.0 23:51:36 25° E 23:52:40 29° ENE 23:55:54 10° N
Lacrosse 5 3.3 23:48:50 10° NW 23:53:33 37° NNE 23:58:15 10° E
Cosmos 1470 2.7 23:51:04 10° NNW 23:54:57 78° W 23:56:02 46° S
